When you browse on this site, cookies collect data to enhance your experience and personalize the content and advertising you see.
Visit our Privacy Policy to learn more. By continuing to use the site, you agree to this use of cookies and data.
  • In Czech Republic
  • List of Countries
  • For 7 days
  • Water Temperature
  • Weather Map
  • Weather Widgets
  • user-avatar
    Login

    Hourly Weather Cobán

    Today, 17 September, Tuesday

    Time Temperature Precipitation Wind Pressure Humidity
    00:00 +17°C° 0.9 mm 0 mps 654 mmHg 98%
    01:00 +17°C° 0.1 mm 0 mps 654 mmHg 98%
    02:00 +17°C° 0.1 mm 0 mps 653 mmHg 98%
    03:00 +16°C° 0.1 mm 0 mps 653 mmHg 98%
    04:00 +16°C° 0.1 mm 0 mps 653 mmHg 98%
    05:00 +16°C° 0.1 mm 0 mps 653 mmHg 98%
    06:00 +16°C° 0.1 mm 0 mps 653 mmHg 98%
    07:00 +18°C° 0.2 mm 0 mps 654 mmHg 93%
    08:00 +20°C° 0.2 mm 0 mps 655 mmHg 88%
    09:00 +21°C° 0.2 mm 0 mps 656 mmHg 83%
    10:00 +24°C° 1.3 mm 1 mps 656 mmHg 82%
    11:00 +25°C° 1.3 mm 1 mps 656 mmHg 82%
    12:00 +25°C° 1.3 mm 1 mps 655 mmHg 81%
    13:00 +25°C° 1.5 mm 1 mps 655 mmHg 83%
    14:00 +25°C° 1.5 mm 1 mps 654 mmHg 84%
    15:00 +25°C° 1.5 mm 1 mps 653 mmHg 85%
    16:00 +22°C° 1.2 mm 0 mps 653 mmHg 89%
    17:00 +21°C° 1.2 mm 0 mps 653 mmHg 92%
    18:00 +19°C° 1.2 mm 0 mps 653 mmHg 96%
    19:00 +19°C° 1.3 mm 0 mps 653 mmHg 96%
    20:00 +18°C° 1.3 mm 0 mps 654 mmHg 96%
    21:00 +20°C° 1.3 mm 1 mps 654 mmHg 96%
    22:00 +17°C° 0.2 mm 0 mps 654 mmHg 96%
    23:00 +17°C° 0.2 mm 0 mps 654 mmHg 96%

    Tomorrow, 18 September, Wednesday

    Time Temperature Precipitation Wind Pressure Humidity
    00:00 +17°C° 0.2 mm 0 mps 654 mmHg 96%
    01:00 +16°C° 0 mm 0 mps 654 mmHg 96%
    02:00 +16°C° 0 mm 0 mps 653 mmHg 97%
    03:00 +16°C° 0 mm 0 mps 653 mmHg 97%
    04:00 +16°C° 0 mm 0 mps 653 mmHg 97%
    05:00 +16°C° 0 mm 0 mps 653 mmHg 97%
    06:00 +16°C° 0 mm 0 mps 653 mmHg 97%
    07:00 +18°C° 0 mm 0 mps 654 mmHg 87%
    08:00 +20°C° 0 mm 0 mps 655 mmHg 78%
    09:00 +22°C° 0 mm 0 mps 656 mmHg 68%
    10:00 +26°C° 0 mm 1 mps 656 mmHg 63%
    11:00 +27°C° 0 mm 1 mps 656 mmHg 57%
    12:00 +29°C° 0 mm 1 mps 656 mmHg 51%
    13:00 +28°C° 0.6 mm 1 mps 655 mmHg 60%
    14:00 +27°C° 0.6 mm 1 mps 654 mmHg 69%
    15:00 +26°C° 0.6 mm 1 mps 654 mmHg 78%
    16:00 +24°C° 1.6 mm 1 mps 653 mmHg 84%
    17:00 +23°C° 1.6 mm 1 mps 653 mmHg 90%
    18:00 +21°C° 1.6 mm 1 mps 653 mmHg 96%
    19:00 +21°C° 1.2 mm 1 mps 653 mmHg 96%
    20:00 +20°C° 1.2 mm 1 mps 653 mmHg 96%
    21:00 +20°C° 1.2 mm 1 mps 654 mmHg 96%
    22:00 +19°C° 0.2 mm 1 mps 654 mmHg 95%
    23:00 +19°C° 0.2 mm 1 mps 653 mmHg 95%

    Day after tomorrow, 19 September, Thursday

    Time Temperature Precipitation Wind Pressure Humidity
    00:00 +19°C° 0.2 mm 1 mps 653 mmHg 95%
    01:00 +19°C° 0.2 mm 1 mps 653 mmHg 95%
    02:00 +18°C° 0.2 mm 1 mps 653 mmHg 95%
    03:00 +18°C° 0.2 mm 1 mps 652 mmHg 95%
    04:00 +18°C° 0 mm 1 mps 652 mmHg 94%
    05:00 +18°C° 0 mm 1 mps 652 mmHg 93%
    06:00 +16°C° 0 mm 0 mps 652 mmHg 92%
    07:00 +18°C° 0 mm 0 mps 653 mmHg 81%
    08:00 +21°C° 0 mm 0 mps 654 mmHg 70%
    09:00 +23°C° 0 mm 0 mps 655 mmHg 60%
    10:00 +27°C° 0 mm 1 mps 655 mmHg 55%
    11:00 +28°C° 0 mm 1 mps 655 mmHg 51%
    12:00 +29°C° 0 mm 2 mps 655 mmHg 46%
    13:00 +29°C° 0 mm 2 mps 654 mmHg 48%
    14:00 +28°C° 0 mm 2 mps 653 mmHg 50%
    15:00 +28°C° 0 mm 2 mps 653 mmHg 52%
    16:00 +26°C° 0 mm 1 mps 652 mmHg 64%
    17:00 +23°C° 0 mm 1 mps 652 mmHg 76%
    18:00 +19°C° 0 mm 0 mps 651 mmHg 87%
    19:00 +19°C° 0 mm 0 mps 652 mmHg 89%
    20:00 +20°C° 0 mm 1 mps 652 mmHg 90%
    21:00 +19°C° 0 mm 1 mps 652 mmHg 91%
    22:00 +19°C° 0 mm 1 mps 652 mmHg 91%
    23:00 +19°C° 0 mm 1 mps 652 mmHg 91%

    20 September, Friday

    Time Temperature Precipitation Wind Pressure Humidity
    00:00 +19°C° 0 mm 1 mps 652 mmHg 91%
    01:00 +19°C° 0 mm 1 mps 652 mmHg 90%
    02:00 +16°C° 0 mm 0 mps 652 mmHg 90%
    03:00 +16°C° 0 mm 0 mps 652 mmHg 89%
    04:00 +16°C° 0 mm 0 mps 652 mmHg 89%
    05:00 +16°C° 0 mm 0 mps 652 mmHg 89%
    06:00 +16°C° 0 mm 0 mps 652 mmHg 89%
    07:00 +18°C° 0 mm 0 mps 653 mmHg 81%
    08:00 +21°C° 0 mm 0 mps 654 mmHg 73%
    09:00 +23°C° 0 mm 0 mps 655 mmHg 65%
    10:00 +23°C° 0.8 mm 0 mps 655 mmHg 69%
    11:00 +25°C° 0.8 mm 1 mps 654 mmHg 74%
    12:00 +25°C° 0.8 mm 1 mps 654 mmHg 79%
    13:00 +25°C° 1.4 mm 1 mps 653 mmHg 81%
    14:00 +25°C° 1.4 mm 1 mps 652 mmHg 82%
    15:00 +24°C° 1.4 mm 1 mps 652 mmHg 84%
    16:00 +23°C° 0.8 mm 1 mps 652 mmHg 87%
    17:00 +20°C° 0.8 mm 0 mps 652 mmHg 90%
    18:00 +18°C° 0.8 mm 0 mps 652 mmHg 93%
    19:00 +18°C° 0.1 mm 0 mps 652 mmHg 94%
    20:00 +19°C° 0.1 mm 1 mps 653 mmHg 94%
    21:00 +19°C° 0.1 mm 1 mps 653 mmHg 94%
    22:00 +19°C° 0 mm 1 mps 653 mmHg 95%
    23:00 +18°C° 0 mm 1 mps 653 mmHg 95%

    21 September, Saturday

    Time Temperature Precipitation Wind Pressure Humidity
    00:00 +16°C° 0 mm 0 mps 653 mmHg 95%
    01:00 +16°C° 0.1 mm 0 mps 653 mmHg 95%
    02:00 +16°C° 0.1 mm 0 mps 653 mmHg 95%
    03:00 +16°C° 0.1 mm 0 mps 652 mmHg 96%
    04:00 +16°C° 0 mm 0 mps 653 mmHg 96%
    05:00 +16°C° 0 mm 0 mps 653 mmHg 96%
    06:00 +15°C° 0 mm 0 mps 653 mmHg 96%
    07:00 +18°C° 0 mm 0 mps 654 mmHg 87%
    08:00 +20°C° 0 mm 0 mps 655 mmHg 78%
    09:00 +23°C° 0 mm 0 mps 656 mmHg 68%
    10:00 +26°C° 0 mm 1 mps 656 mmHg 63%
    11:00 +27°C° 0 mm 1 mps 655 mmHg 58%
    12:00 +28°C° 0 mm 1 mps 655 mmHg 53%
    13:00 +27°C° 0.6 mm 1 mps 654 mmHg 60%
    14:00 +26°C° 0.6 mm 1 mps 653 mmHg 67%
    15:00 +25°C° 0.6 mm 1 mps 653 mmHg 74%
    16:00 +24°C° 0.7 mm 1 mps 652 mmHg 79%
    17:00 +22°C° 0.7 mm 1 mps 652 mmHg 85%
    18:00 +19°C° 0.7 mm 0 mps 652 mmHg 91%
    19:00 +18°C° 0.4 mm 0 mps 653 mmHg 91%
    20:00 +18°C° 0.4 mm 0 mps 653 mmHg 91%
    21:00 +19°C° 0.4 mm 1 mps 654 mmHg 91%
    22:00 +19°C° 0 mm 1 mps 654 mmHg 91%
    23:00 +19°C° 0 mm 1 mps 654 mmHg 91%

    22 September, Sunday

    Time Temperature Precipitation Wind Pressure Humidity
    00:00 +16°C° 0 mm 0 mps 654 mmHg 91%
    01:00 +16°C° 0 mm 0 mps 653 mmHg 92%
    02:00 +16°C° 0 mm 0 mps 653 mmHg 93%
    03:00 +16°C° 0 mm 0 mps 652 mmHg 93%
    04:00 +16°C° 0 mm 0 mps 653 mmHg 93%
    05:00 +16°C° 0 mm 0 mps 653 mmHg 94%
    06:00 +16°C° 0 mm 0 mps 653 mmHg 94%
    07:00 +18°C° 0 mm 0 mps 654 mmHg 87%
    08:00 +20°C° 0 mm 0 mps 654 mmHg 80%
    09:00 +22°C° 0 mm 0 mps 655 mmHg 72%
    10:00 +24°C° 0.2 mm 1 mps 655 mmHg 73%
    11:00 +25°C° 0.2 mm 1 mps 655 mmHg 74%
    12:00 +25°C° 0.2 mm 1 mps 654 mmHg 75%
    13:00 +25°C° 1.4 mm 1 mps 654 mmHg 78%
    14:00 +25°C° 1.4 mm 1 mps 653 mmHg 81%
    15:00 +24°C° 1.4 mm 1 mps 652 mmHg 84%
    16:00 +21°C° 0.7 mm 0 mps 652 mmHg 87%
    17:00 +20°C° 0.7 mm 0 mps 652 mmHg 90%
    18:00 +19°C° 0.7 mm 0 mps 652 mmHg 94%
    19:00 +18°C° 0.4 mm 0 mps 653 mmHg 95%
    20:00 +20°C° 0.4 mm 1 mps 653 mmHg 96%
    21:00 +19°C° 0.4 mm 1 mps 653 mmHg 96%
    22:00 +19°C° 0.4 mm 1 mps 653 mmHg 96%
    23:00 +19°C° 0.4 mm 1 mps 653 mmHg 96%
    Show more